SCOUT A DEB, 3214

Orbit data source: Space-Track

SCOUT A DEB, 3214 is space debris in LEO originally from a launch on Sat, 02 Mar 1968 UTC launched from the Air Force Western Test Range (AFWTR). Debris objects in space refer to the collection of defunct objects orbiting the Earth. Examples of debris include non-operational satellites, rocket bodies, and fragments generated from explosions, collisions, or faulty payload assembly.

Loading next visibility...
Identifier
3214, 1968-012D
Orbit
LEO
Country
Flag of USUS
Related business
Manufacturer
Unknown
Mission
Spacecraft
Bus & Motor
Unknown
Mass
Unknown
Launch date (UTC)
1968-03-02 (58 years ago)
Launch vehicle
Unknown
Launch site
Air Force Western Test Range (AFWTR)
Object type
Payload
Rocket body
Debris
Shape & HBR
Unknown shape, 0.1 m
Radar Cross Section
Small (<0.1 m²)

Expand to show TLE details & history
Last TLE update: 10 hours ago

TLE from 10 hours ago
0 SCOUT A DEB
1 03214U 68012D   25308.46927192  .00000211  00000-0  39479-3 0  9994
2 03214  89.8217 107.4694 0186360 163.9372 254.4796 13.29212312554684
Epoch: 2025-11-04T11:15Z
TLE epoch observation values (Epoch: 2025-11-04T11:15:45.093Z)
Latitude
56.46333°
Longitude
-105.15669°
Altitude
1,199.193 km
Speed
7.24 km/s
True Right ascension
07h 10m 56s
True Declination
56° 18' 50"
Sunlit
Object was in daylight at epoch
Visualization orbit readout
Latitude
Unknown
Longitude
Unknown
Altitude
Unknown
Speed
Unknown
Apparent Right ascension
Unknown
Apparent Declination
Unknown
Sunlit
N/A
Visualization observer readout
Local Sidereal Time
16:56:18
Azimuth
Unknown
Elevation
Unknown
Doppler factor
Unknown
Orbital elements
Apogee altitude
1,287.05 km
Perigee altitude
1,006.58 km
Semi-major axis
7,524.952 km
Eccentricity
0.01864
Inclination
89.8217°
RAAN
107.4694°
Arg. of periapsis
163.9372°
True anomaly
252.43513°
Mean anomaly
254.4796°
Eccentric anomaly
253.45604°
Mean motion
3.32497 °/min
Orbital period
108.27 mins
BSTAR
0.00039479
Loading maneuver chart data...
Computing Atmospheric mass density...
Loading historical data...
Loading historical data...
Loading historical data...
Loading historical data...
Loading historical data...
Loading historical data...
Loading historical data...

Documentation

Showing up to 5 results
|